CAPE
985 613 975 1279 56 1 8 14 17 66 48 33 0 5 86 95 4 0 0 134 711 708 1429 1502 2231 2207 2144 2115 2060 2040 2016 2143 2474 2487 2384 2070 2072 2221 2203 2142 2347 2123 2001 1966 1962 1910 1875 1887 1729
948 1255 1263 503 0 10 28 57 47 66 31 35 41 123 158 191 115 122 230 696 763 1166 1387 1588 2134 2289 2179 2169 2294 2180 2333 2332 2247 2358 2417 2380 2396 2367 2152 2297 2031 1917 1939 1643 1160 1549 1768 1772 1594
1259 1851 587 157 0 10 30 55 64 29 25 2 13 51 122 336 205 216 428 664 925 1022 1408 1728 2004 2078 2065 2176 2144 2167 2279 2337 2251 1919 2260 2335 2393 2337 2240 2085 2108 1786 1615 1539 1581 1548 1312 1098 1136
129 37 601 117 26 64 58 43 47 1 1 17 71 144 300 311 282 420 691 926 936 1334 1647 2079 2176 2171 2081 1908 1465 1352 834 1720 2161 2227 2162 2361 2420 2463 2273 1860 1542 1301 1038 1010 1008 1039 1172 1251 1182
766 236 157 29 30 80 32 41 0 5 19 47 86 187 410 329 384 711 784 834 1264 1485 1727 1968 2113 2060 1760 1455 1759 2143 1542 1004 1662 1783 1758 2259 2361 2103 1894 1662 1395 1090 942 1188 1362 1246 914 1342 1334
29 540 6 4 9 61 4 0 13 27 41 100 150 132 419 482 608 702 732 1015 1338 1527 1774 1903 2181 1830 1412 1578 2167 2334 1990 1258 1246 1539 1648 1917 2035 1950 1737 1491 1249 961 902 1064 1371 1113 1074 1087 1144
18 159 45 33 29 56 0 0 9 49 73 52 41 181 449 475 588 717 850 1042 1415 1555 1501 1606 1611 1221 2061 2107 1979 1739 2126 1899 1201 1380 1538 1643 1694 1609 1482 1334 1199 1008 937 856 951 1191 1353 1324 1384
10 251 63 44 103 43 25 15 11 1 115 87 152 230 374 442 656 626 724 1022 1184 1151 1352 1373 1385 1057 1279 1532 1623 1460 1316 1309 1320 1408 1529 1602 1580 1533 1474 1650 1591 1295 1167 887 801 913 1169 1951 1848
45 198 5 15 56 53 24 21 19 39 155 150 170 159 342 500 469 462 590 705 839 959 1091 1107 1185 1099 969 1266 1329 1896 1758 1569 1561 1539 1617 1706 1201 1118 1291 1515 1648 1642 1459 1078 1222 1561 2466 976 1227
344 263 48 43 43 40 23 15 8 74 96 221 204 257 404 357 353 355 499 602 596 710 800 959 849 858 774 1155 1101 1142 1371 1253 1250 1349 1454 1682 1581 1582 2189 2217 2151 2592 2180 2431 2431 2908 1653 558 425
572 521 178 167 43 3 18 0 5 2 99 161 239 264 318 229 250 281 459 446 407 506 646 781 544 770 652 196 571 536 726 937 1050 837 1003 1100 1067 1112 1239 1375 1242 1987 2356 11 1771 1547 653 273 473
264 225 97 183 161 6 0 0 0 0 18 185 204 221 253 189 159 207 308 257 290 363 563 571 454 618 677 604 237 290 630 738 289 8 334 420 593 946 840 692 819 1002 20 190 675 388 158 97 121
260 304 121 164 75 10 19 40 20 4 73 204 209 194 168 164 154 153 160 247 246 286 389 333 373 438 512 566 164 163 413 419 216 0 0 0 429 713 389 368 1034 424 109 274 414 71 77 173 276
285 337 39 45 0 63 35 0 0 0 76 138 159 128 133 140 166 79 76 134 267 229 100 0 230 370 341 274 278 122 189 147 0 160 0 0 0 328 973 224 397 514 437 420 131 57 97 48 214
265 23 94 40 17 2 0 0 0 0 0 52 88 82 112 132 107 72 148 110 229 225 24 0 2 176 247 203 49 0 0 0 0 138 171 125 44 134 610 747 648 472 315 51 0 19 19 12 8
132 69 17 22 105 61 1 0 0 0 0 0 0 19 52 48 52 38 99 114 116 99 0 0 290 373 104 0 0 0 8 180 1 0 543 95 0 110 174 344 376 91 214 0 0 0 0 0 12
31 129 45 27 99 19 13 17 0 0 0 0 0 0 0 0 13 0 88 123 55 16 17 9 461 263 226 285 323 569 314 219 192 207 522 674 516 549 94 142 409 140 395 160 3 78 134 79 5
57 189 98 70 254 22 2 5 0 0 0 0 0 0 0 0 0 0 83 96 9 0 53 81 226 265 139 308 603 483 168 516 545 337 333 623 455 250 145 278 610 182 475 816 721 644 256 241 13
72 230 345 266 348 73 50 17 0 0 0 0 0 0 0 0 0 1 65 67 32 50 0 22 119 38 267 458 601 385 543 522 310 334 284 214 414 643 766 831 975 868 639 475 397 371 341 129 324
143 302 330 344 299 51 11 5 18 1 0 0 0 0 0 0 12 4 7 78 242 191 1 0 118 3 205 295 303 457 558 469 220 275 560 650 466 595 812 681 708 759 1117 490 553 988 882 270 276
34 74 248 102 422 156 37 0 0 0 0 0 0 0 3 24 30 40 49 111 367 296 98 0 36 90 167 127 349 586 573 534 382 397 266 363 365 196 141 190 140 77 871 610 575 799 1074 1208 896
51 70 224 472 290 116 21 11 0 0 0 1 0 0 8 66 62 102 131 208 297 378 218 2 23 153 235 205 419 647 526 284 383 102 68 19 189 438 192 15 0 0 270 328 294 746 803 764 756
155 137 381 557 49 12 20 1 0 0 6 1 0 0 7 48 65 92 244 345 258 368 278 66 247 218 332 332 452 382 525 455 138 1 0 1 0 378 247 0 0 32 197 114 109 70 156 423 730
81 270 34 35 0 77 24 11 16 0 28 29 25 2 3 36 73 89 266 307 333 353 256 329 189 118 145 433 523 444 477 288 50 8 44 66 1 0 0 0 0 0 0 0 0 0 0 0 26
189 89 5 112 156 184 0 2 81 0 0 19 28 13 10 50 70 128 269 383 291 247 524 584 276 268 178 304 489 363 419 104 126 45 0 0 0 0 0 0 0 0 0 0 0 0 0 0 0
270 0 0 0 24 0 15 50 0 45 0 113 437 253 13 113 84 147 294 455 365 410 919 471 197 24 30 9 5 3 2 0 0 0 0 0 0 0 0 0 0 0 0 0 0 0 0 0 0
0 0 0 0 0 0 2 29 163 46 183 260 421 386 590 560 524 639 171 346 601 436 147 120 22 0 0 1 0 0 0 0 0 0 0 0 0 0 0 0 0 0 0 0 0 0 0 0 0
0 0 0 0 0 0 0 416 160 210 12 11 22 47 3 2 2 4 124 1 2 2 2 2 2 3 1 0 0 0 0 0 0 0 0 0 0 0 0 0 0 0 0 0 0 0 0 0 0
0 0 0 0 0 0 0 302 875 212 19 12 7 4 3 3 4 6 6 3 3 3 7 4 5 2 3 1 0 0 0 0 0 0 0 0 0 0 0 0 0 0 0 0 0 0 0 0 0
0 0 0 0 0 0 0 0 430 201 7 2 2 2 1 1 1 2 10 5 4 3 3 4 5 5 9 4 0 0 0 0 0 0 0 0 0 0 0 0 0 0 0 0 0 0 0 0 0
CIN
-80 -106 -93 -48 -62 -7 -42 -27 -80 -41 -67 -85 0 -15 -108 -126 -23 0 0 -98 -36 -24 -3 -4 0 0 0 0 0 0 0 0 -1 0 0 0 0 0 0 0 0 0 0 0 0 0 0 0 0
-122 -68 -72 -97 0 -41 -34 -44 -64 -117 -165 -138 -126 -83 -110 -95 -122 -114 -91 -26 -30 -11 -6 -5 -3 0 0 0 0 0 0 0 0 0 0 0 0 0 0 0 0 0 0 0 -1 0 0 -3 -3
-115 -73 -91 -87 0 -105 -66 -76 -86 -98 -117 -122 -145 -154 -107 -74 -97 -102 -69 -24 -18 -18 -8 -3 -1 -1 -1 -1 0 0 0 0 0 0 0 -2 0 0 0 0 0 0 0 0 0 -1 -12 -15 -16
-277 -292 -119 -78 -39 -76 -97 -88 -125 -149 -79 -146 -149 -150 -80 -66 -83 -76 -30 -19 -29 -7 -5 -1 0 0 0 0 0 -3 -31 0 0 0 0 0 0 0 0 0 0 -5 -21 -24 -25 -32 -31 -22 -26
-173 -201 -77 -65 -38 -60 -94 -113 0 -173 -167 -192 -187 -131 -84 -43 -66 -42 -44 -35 -24 -6 -5 -2 -1 0 0 0 0 0 0 -30 -3 -2 -5 0 0 0 -1 -5 -11 -36 -47 -18 -20 -38 -55 -26 -18
-213 -118 -52 -48 -45 -53 -89 -84 -176 -207 -198 -211 -199 -191 -58 -34 -58 -40 -41 -27 -23 -6 -5 -3 -1 0 0 0 -1 0 0 -23 -32 -17 -23 -10 -5 -7 -13 -35 -46 -68 -73 -50 -30 -51 -50 -45 -38
-195 -127 -60 -38 -55 -68 0 0 -159 -203 -211 -251 -254 -178 -69 -24 -37 -30 -36 -37 -10 -4 -7 -6 -3 -1 0 0 0 0 0 -4 -59 -47 -37 -28 -20 -36 -49 -65 -74 -92 -91 -96 -84 -62 -52 -42 -36
-231 -134 -57 -43 -31 -56 -69 -107 -141 -49 -184 -227 -164 -152 -117 -40 -27 -38 -46 -32 -31 -29 -24 -22 -11 -16 -13 -6 -9 -22 -42 -52 -56 -48 -41 -37 -35 -41 -59 -59 -70 -74 -84 -109 -111 -91 -74 -40 -51
-237 -98 -69 -69 -63 -82 -131 -155 -163 -176 -185 -147 -142 -173 -105 -45 -54 -42 -28 -33 -40 -41 -46 -39 -26 -44 -65 -52 -43 -17 -15 -21 -32 -49 -44 -53 -138 -147 -124 -98 -69 -55 -69 -97 -88 -79 -49 -163 -175
-163 -101 -49 -66 -77 -86 -129 -105 -189 -166 -166 -137 -171 -97 -53 -69 -79 -85 -52 -50 -66 -78 -69 -60 -70 -89 -102 -59 -82 -81 -65 -102 -114 -114 -104 -100 -118 -155 -107 -96 -69 -30 -41 -40 -48 -45 -108 -284 -385
-94 -75 -44 -51 -83 -34 -123 0 -151 -20 -152 -161 -202 -145 -82 -99 -88 -87 -72 -103 -124 -122 -100 -93 -124 -112 -121 -212 -161 -186 -181 -165 -184 -233 -205 -193 -196 -237 -220 -222 -173 -100 -75 -471 -156 -174 -275 -391 -415
-88 -52 -70 -79 -71 -103 0 0 0 0 -107 -136 -151 -153 -122 -94 -95 -87 -80 -109 -129 -138 -119 -124 -141 -128 -128 -144 -209 -216 -194 -208 -313 -268 -340 -278 -267 -240 -241 -264 -267 -232 -403 -386 -324 -373 -467 -519 -531
-102 -100 -49 -43 -55 -87 -84 -133 -174 -59 -205 -160 -125 -104 -113 -94 -85 -85 -99 -95 -120 -138 -120 -144 -157 -147 -144 -142 -220 -254 -214 -244 -294 0 0 0 -241 -225 -279 -349 -265 -305 -500 -448 -378 -472 -534 -442 -440
-192 -123 -56 -92 0 -140 -80 0 0 0 -175 -153 -123 -116 -105 -90 -101 -129 -141 -114 -123 -143 -162 -1 -180 -146 -152 -177 -187 -237 -241 -278 0 -294 0 0 0 -274 -192 -312 -271 -258 -316 -374 -475 -514 -492 -455 -519
-132 -37 -86 -71 -122 -11 0 0 0 0 0 -121 -167 -110 -107 -98 -101 -135 -123 -174 -136 -164 -48 0 -63 -174 -172 -210 -186 0 0 0 0 -282 -257 -253 -124 -158 -204 -214 -224 -255 -339 -318 -29 -570 -547 -634 -418
-146 -117 -56 -66 -73 -128 -8 0 0 0 0 0 0 -102 -100 -123 -122 -115 -122 -129 -166 -184 0 0 -125 -154 -206 0 0 0 -36 -214 -31 0 -231 -219 0 -191 -216 -171 -245 -334 -337 0 0 0 0 0 -661
-223 -52 -70 -32 -45 -77 -109 -101 0 0 0 0 0 0 0 0 -167 0 -111 -108 -169 -204 -251 -274 -121 -168 -181 -177 -163 -151 -197 -185 -190 -198 -182 -170 -165 -146 -236 -178 -182 -256 -257 -331 -99 -329 -365 -423 -215
-117 -97 -73 -77 -100 -95 -35 -53 0 0 0 0 0 0 0 0 0 0 -119 -125 -115 0 -191 -167 -138 -143 -204 -168 -142 -172 -189 -158 -212 -195 -205 -147 -169 -198 -217 -182 -154 -219 -191 -173 -177 -157 -287 -267 -266
-77 -81 -99 -111 -79 -114 -204 -179 0 0 0 0 0 0 0 0 0 -110 -150 -145 -165 -159 -1 -228 -163 -262 -183 -164 -117 -132 -94 -127 -193 -244 -250 -228 -192 -180 -164 -152 -140 -148 -124 -129 -140 -140 -138 -210 -179
-84 -102 -125 -122 -138 -144 -192 -187 -187 -117 0 0 0 0 -29 0 -316 -368 -326 -178 -118 -157 -17 0 -148 -121 -196 -168 -179 -119 -143 -185 -247 -273 -227 -217 -219 -200 -185 -197 -175 -170 -121 -136 -124 -95 -88 -152 -174
-177 -158 -175 -144 -150 -177 -193 0 0 0 0 0 0 0 -194 -259 -269 -262 -283 -234 -127 -130 -217 0 -224 -197 -187 -193 -170 -153 -175 -184 -198 -212 -250 -236 -233 -265 -273 -257 -280 -296 -168 -163 -143 -93 -60 -46 -92
-148 -220 -141 -180 -190 -120 -171 -151 0 0 0 -253 0 0 -320 -271 -255 -223 -214 -231 -179 -136 -163 -227 -234 -160 -166 -198 -132 -100 -127 -134 -167 -236 -263 -312 -224 -179 -214 -329 0 0 -216 -175 -175 -96 -70 -60 -50
-92 -187 -98 -127 -216 -199 -206 -121 0 -99 -178 -106 0 0 -362 -287 -271 -248 -223 -211 -206 -139 -162 -222 -158 -156 -133 -159 -145 -160 -135 -163 -241 -103 0 -19 0 -113 -122 0 0 -240 -161 -201 -217 -222 -177 -93 -39
-148 -159 -169 -216 0 -124 -208 -283 -286 0 -406 -400 -413 -268 -245 -342 -265 -256 -214 -205 -196 -191 -202 -166 -165 -190 -178 -157 -133 -147 -133 -181 -230 -283 -249 -228 -98 0 0 0 0 -40 0 0 0 0 0 0 -125
-135 -169 -33 -70 -35 -82 0 -281 -198 0 0 -398 -419 -424 -428 -314 -285 -258 -234 -238 -244 -234 -187 -177 -227 -173 -205 -178 -156 -164 -154 -226 -187 -116 0 0 0 0 0 0 0 0 0 0 0 0 0 0 0
-151 -12 0 0 -78 0 -274 -174 -1 -495 -28 -539 -457 -415 -407 -262 -262 -260 -227 -190 -171 -198 -189 -249 -307 -319 -302 -330 -402 -44 -40 0 0 0 0 0 0 0 0 0 0 0 0 0 0 0 0 0 0
0 0 0 0 0 0 -100 -232 -282 -501 -426 -467 -423 -428 -336 -369 -387 -363 -481 -333 -291 -315 -430 -405 -460 0 0 0 0 0 0 0 0 0 0 0 0 0 0 0 0 0 0 0 0 0 0 0 0
0 0 0 0 0 0 0 -119 -154 -383 -251 -275 -557 -494 0 0 0 -144 -269 0 0 0 0 0 0 0 0 0 0 0 0 0 0 0 0 0 0 0 0 0 0 0 0 0 0 0 0 0 0
0 0 0 0 0 0 0 -75 -222 -407 -529 -442 0 0 0 0 0 0 0 0 0 0 0 0 0 0 0 0 0 0 0 0 0 0 0 0 0 0 0 0 0 0 0 0 0 0 0 0 0
0 0 0 0 0 0 0 0 -327 -378 -249 0 0 0 0 0 0 0 0 0 0 0 0 0 0 0 0 0 0 0 0 0 0 0 0 0 0 0 0 0 0 0 0 0 0 0 0 0 0
Wind_Speed
5 4 1 1 3 5 2 2 4 9 5 1 15 5 9 10 2 4 3 6 8 5 5 6 9 10 10 10 10 10 11 11 11 12 12 12 12 12 12 12 12 12 11 12 11 10 9 9 9
3 3 2 2 5 5 2 3 8 3 5 12 9 8 10 6 6 10 5 7 8 6 4 4 8 9 9 9 10 10 10 10 10 10 11 11 11 11 11 11 12 11 10 10 10 9 8 8 9
5 3 3 2 3 2 3 1 9 11 7 4 6 7 5 4 9 6 8 9 7 5 5 5 9 9 8 9 10 9 9 11 10 10 10 9 11 11 11 9 11 10 9 7 7 6 6 6 5
3 4 3 2 4 2 5 10 13 8 6 8 12 10 5 9 4 6 12 10 8 5 4 8 10 10 9 9 8 9 9 9 9 10 9 8 10 9 11 9 9 8 6 5 4 4 3 4 3
3 3 3 0 3 5 6 12 6 4 5 9 4 6 5 4 15 13 11 10 9 5 4 5 8 9 9 9 7 8 10 9 9 9 8 8 8 8 9 8 7 6 6 5 4 2 1 3 5
4 2 3 2 5 5 6 9 8 8 8 10 11 8 5 13 14 11 10 8 6 5 4 4 7 8 7 7 7 9 10 10 9 8 8 8 8 7 6 6 6 5 6 6 6 4 5 6 6
1 1 2 6 8 9 6 9 8 10 10 7 6 6 9 10 11 10 9 7 6 5 5 5 4 6 6 7 7 8 8 8 8 7 6 5 5 4 4 3 3 3 4 5 6 6 6 7 7
2 1 1 2 9 5 12 5 9 6 8 13 8 4 11 10 13 10 8 6 6 4 4 4 3 4 2 2 8 8 8 7 6 5 4 3 3 2 2 1 2 0 3 3 4 5 6 8 9
1 1 3 6 7 6 14 9 7 6 11 3 2 8 13 16 13 11 6 4 4 4 4 4 4 4 3 2 4 6 8 7 6 4 3 4 2 1 3 3 4 3 2 2 2 3 6 7 6
2 2 3 5 6 13 11 16 8 7 7 10 17 15 17 16 14 12 9 7 5 6 5 5 4 4 2 2 3 3 3 3 1 1 1 1 2 4 5 6 5 4 4 3 2 6 5 3 2
1 4 6 6 15 19 16 12 5 16 7 17 21 20 19 16 13 12 11 10 11 7 4 6 5 5 3 1 2 1 0 1 1 1 4 3 1 3 2 2 1 1 4 2 2 4 3 2 2
4 6 5 8 13 14 17 12 9 3 7 14 16 21 19 17 13 12 12 10 8 7 7 6 6 6 5 1 2 1 1 1 2 2 2 3 2 3 2 3 3 3 2 3 5 2 3 4 3
2 8 13 11 12 14 15 9 11 5 15 16 17 16 16 15 12 10 8 8 6 7 6 7 7 6 6 5 3 2 3 2 3 3 3 2 3 3 2 4 4 4 3 4 3 2 3 2 5
5 8 6 5 13 17 15 9 5 11 17 18 18 17 15 16 15 7 9 11 9 8 7 6 6 6 5 5 5 4 3 4 4 2 3 3 2 2 2 4 3 3 3 2 0 2 4 3 4
3 16 12 5 5 8 16 4 6 16 17 18 17 15 14 14 13 13 14 13 13 9 8 8 7 7 5 5 3 5 4 4 4 3 2 3 3 2 1 3 4 1 3 2 1 2 2 4 6
6 6 3 2 6 8 5 4 8 13 17 17 16 14 14 14 15 12 12 11 11 8 8 8 8 7 7 6 4 4 3 4 4 4 2 1 4 2 2 2 5 3 3 3 1 2 1 3 4
8 4 4 6 7 3 3 4 12 13 14 14 14 14 14 13 15 14 14 14 13 11 9 10 7 8 7 6 5 3 4 4 3 3 2 2 2 4 3 2 3 5 5 4 4 1 2 2 4
5 5 2 3 7 8 3 3 15 15 14 15 14 14 14 14 18 16 17 15 12 11 9 9 8 7 6 5 4 2 2 3 3 3 2 3 3 4 2 2 2 2 4 3 3 3 4 2 4
12 13 10 5 6 1 6 2 17 16 12 12 12 12 14 13 14 13 14 13 12 11 10 9 8 8 5 2 3 2 2 1 1 3 5 2 3 3 4 2 3 2 1 1 3 3 4 4 2
6 9 1 3 2 3 1 10 14 15 18 15 10 10 13 13 8 10 12 13 14 14 13 8 8 6 5 4 3 3 3 2 3 2 4 3 2 1 4 4 4 3 1 2 2 2 2 1 2
4 7 10 5 5 2 0 6 6 7 8 11 10 14 12 16 12 11 14 15 13 13 13 11 9 9 7 4 3 4 4 2 2 3 3 3 3 3 5 5 3 3 3 3 1 2 1 1 2
6 12 12 11 9 4 5 5 7 12 8 9 15 14 15 13 13 11 12 13 13 14 10 9 9 7 6 7 4 4 3 2 1 2 3 2 3 3 4 4 5 4 3 4 2 2 1 1 2
11 10 5 7 4 3 2 1 7 7 16 20 15 16 18 17 16 17 16 16 15 12 12 9 6 6 6 6 4 5 3 3 3 2 3 2 4 5 5 2 4 5 4 4 5 5 4 2 2
8 12 10 5 3 3 8 7 7 7 27 21 12 18 19 19 18 17 16 13 11 10 10 8 7 3 5 6 5 6 7 6 4 2 3 3 4 4 5 4 5 5 6 6 5 5 6 6 4
9 8 4 2 2 8 2 7 14 5 6 24 18 14 17 17 17 15 14 12 9 10 8 9 10 6 6 6 6 6 6 6 4 4 2 4 4 3 5 5 6 5 6 6 6 6 7 7 6
14 10 8 8 6 3 5 7 6 10 4 7 8 4 11 15 13 13 12 11 10 10 9 11 10 7 6 5 6 5 7 4 4 4 3 4 5 4 4 5 6 7 6 6 6 5 5 6 6
4 7 7 8 2 3 5 6 3 13 13 14 14 14 11 9 9 9 7 7 8 9 10 11 11 9 7 7 9 8 8 8 8 7 4 3 4 4 5 6 6 6 6 7 6 4 5 6 6
7 5 3 3 4 4 5 4 5 3 8 11 13 12 11 13 12 10 10 11 10 10 10 12 11 11 9 11 9 7 6 7 6 5 6 5 4 4 5 6 6 5 6 6 7 5 5 6 6
1 2 6 6 5 7 3 7 4 7 10 11 11 11 12 12 12 12 8 12 13 13 10 12 11 11 11 9 7 7 6 6 5 4 5 4 4 5 5 5 8 6 6 6 6 5 6 6 6
2 2 7 6 5 1 4 6 6 8 12 13 11 12 11 12 10 9 12 6 8 10 12 11 9 9 7 6 5 6 6 5 6 5 4 5 5 4 4 5 4 5 5 3 4 4 4 5 5
Wind_Direction
175 207 165 58 66 77 52 61 126 140 139 294 160 129 107 38 43 162 147 143 123 123 120 127 140 129 126 118 117 108 104 102 98 93 95 97 100 104 103 101 101 98 89 85 90 90 87 88 96
149 180 70 39 74 84 36 90 130 118 111 92 76 71 46 71 55 108 97 140 121 129 121 125 127 124 125 125 117 113 112 109 103 101 102 112 110 109 104 98 91 88 88 85 88 89 91 96 104
108 56 63 53 97 116 143 81 99 107 144 107 110 75 62 77 104 126 123 123 111 108 122 149 133 136 125 116 121 113 113 111 116 111 106 111 111 108 106 98 88 83 79 79 81 84 89 88 84
103 17 52 39 121 129 137 136 136 118 90 76 109 80 74 99 116 117 126 124 120 132 148 155 150 132 129 119 124 124 120 121 107 102 115 115 114 108 101 97 92 89 84 76 75 78 86 97 111
27 63 50 21 87 107 124 138 125 110 95 106 116 97 73 52 109 125 128 133 131 128 152 152 135 136 134 133 136 129 127 126 126 127 126 113 109 113 112 106 98 88 72 64 64 92 100 68 62
36 65 47 132 121 116 100 128 110 86 98 107 95 94 76 130 129 140 131 134 129 130 131 128 133 134 136 144 131 128 133 131 130 140 138 140 137 126 118 110 103 94 81 70 58 52 39 35 45
19 19 224 115 123 128 148 129 119 122 97 85 114 90 129 140 142 135 132 129 124 132 128 134 138 147 153 131 121 118 129 135 141 140 140 137 131 126 119 114 107 106 96 89 82 63 36 17 14
84 220 18 96 153 137 145 104 124 83 72 108 140 146 154 154 143 124 130 124 128 123 138 142 129 104 80 109 129 126 126 131 126 123 121 122 86 57 19 58 296 175 88 80 68 59 35 23 10
194 41 176 166 162 131 134 122 180 86 130 162 157 120 140 141 130 126 121 106 111 158 164 163 156 147 153 187 156 135 124 115 106 108 129 65 65 29 349 296 287 315 300 69 82 66 55 41 43
243 99 222 164 166 143 133 135 132 122 134 103 101 112 136 141 142 145 154 162 162 188 193 179 171 170 150 236 107 92 75 91 135 157 131 162 198 236 233 233 235 242 249 337 251 140 147 59 6
292 258 136 131 131 135 138 135 116 141 145 159 146 146 153 153 159 159 167 177 182 189 195 181 178 165 166 12 143 115 95 280 201 74 185 205 126 256 229 268 33 92 112 40 225 198 158 183 247
251 234 223 139 135 138 148 130 142 167 164 157 147 151 154 161 168 172 177 179 174 183 196 184 174 172 193 186 185 199 183 202 181 145 163 139 124 360 68 68 117 101 117 178 211 204 189 222 237
6 322 136 155 138 137 146 145 141 132 134 135 145 153 161 169 175 178 175 177 174 189 193 194 170 183 195 198 187 186 216 218 231 181 174 299 79 51 11 55 115 140 197 212 215 50 300 242 238
323 298 124 119 144 141 131 130 95 151 141 147 159 168 172 177 180 163 159 178 181 200 186 176 191 205 210 217 190 182 211 222 262 223 208 150 141 70 353 77 97 156 196 197 311 252 207 300 293
306 93 99 47 107 106 109 27 157 153 155 158 172 175 177 189 183 190 184 177 185 206 168 181 192 213 209 213 166 164 204 212 239 257 214 211 205 93 9 126 110 201 225 137 31 289 80 343 325
52 54 43 339 129 154 78 201 160 167 164 175 175 185 187 194 194 192 189 187 185 190 181 174 186 188 167 156 164 165 214 247 223 233 193 4 316 240 215 133 118 171 151 140 73 320 24 312 309
4 107 30 147 5 128 93 136 181 179 180 184 188 190 197 182 196 197 192 188 185 184 171 178 173 182 168 161 154 189 214 203 220 231 209 159 280 288 297 15 76 137 136 150 167 269 293 303 299
145 84 87 20 323 35 35 180 176 191 189 197 197 198 197 181 194 189 190 185 181 185 174 176 176 175 177 160 142 133 63 33 1 278 200 169 207 214 133 36 34 139 134 176 195 184 217 240 242
148 168 150 206 190 181 192 283 194 195 200 208 213 212 210 195 193 185 181 181 174 179 181 183 174 183 154 158 134 132 137 142 5 66 85 78 106 87 114 90 14 17 60 286 188 175 188 210 220
128 140 105 270 2 107 234 252 212 201 212 208 188 195 196 196 157 171 176 180 186 182 187 184 191 175 187 160 163 145 149 167 127 107 67 58 357 57 116 127 109 42 334 353 349 16 353 288 169
150 195 181 184 121 40 351 309 200 225 229 229 207 196 192 188 191 169 175 185 187 191 189 190 189 188 186 185 115 84 67 48 68 83 66 6 16 24 37 26 35 53 52 63 330 327 19 254 308
175 207 188 144 140 214 158 260 245 217 236 231 221 196 195 200 197 191 179 182 190 196 190 190 192 191 198 163 157 152 149 173 170 142 138 165 349 96 72 34 30 26 21 26 17 28 23 15 291
227 167 148 148 63 343 276 58 261 206 227 230 214 195 196 198 192 191 196 186 191 183 183 184 184 187 190 171 143 135 155 138 138 106 139 90 54 45 65 45 25 24 27 23 18 20 35 36 12
74 99 42 52 31 295 199 166 268 192 218 229 208 204 188 192 194 197 193 184 185 182 172 158 144 134 132 130 148 152 151 159 134 123 89 65 76 33 24 34 39 36 32 22 13 7 23 32 19
99 102 63 20 252 236 215 160 249 241 252 219 193 199 191 190 187 194 184 183 174 171 155 137 129 128 133 130 138 146 150 137 165 128 129 103 70 48 37 35 42 23 22 21 5 20 25 17 17
173 169 161 194 203 225 91 230 277 319 347 95 78 95 187 192 186 192 181 176 183 164 140 132 133 134 118 114 106 100 102 88 78 67 78 87 93 78 57 52 38 37 39 30 21 26 15 21 12
205 183 195 115 48 102 207 279 62 42 37 55 64 72 61 61 82 90 82 110 124 124 129 129 114 97 75 65 75 62 74 83 86 75 51 50 60 76 61 57 65 45 29 30 25 31 22 17 2
148 173 78 5 162 244 299 275 200 51 94 89 76 74 63 48 43 57 82 75 68 77 88 90 89 92 84 82 70 78 81 82 84 89 75 55 66 60 67 71 51 47 49 31 25 7 10 22 3
13 286 42 118 131 164 186 255 346 160 135 108 81 75 69 59 44 22 27 92 87 76 74 85 86 90 87 82 84 79 56 56 52 67 94 75 33 29 17 39 64 30 36 30 41 12 21 14 360
176 227 144 124 252 116 155 268 97 133 138 116 115 113 102 100 95 65 345 43 74 108 99 92 91 86 80 84 82 82 94 86 63 359 99 91 80 60 58 53 71 38 38 39 34 23 10 5 353